{"data":{"norad_id":55935,"intl_designator":"2023-037X","name":"STARLINK-5920","alt_names":[],"object_type":"PAYLOAD","status":"ACTIVE","operator":null,"country":"US","launch_date":"2023-03-17","launch_site_code":"AFWTR","launch_vehicle":null,"mission":null,"orbit_class":"UNKNOWN","rcs_meters":null,"size_class":null,"mass_kg":null,"dimensions":null,"purposes":["comms"],"wikipedia_slug":null,"has_3d_model":false,"image_url":null,"decayed_at":null,"tle_current":{"epoch":"2026-09-20T22:00:03.000096Z","epoch_age_seconds":70158,"freshness":"FRESH","line1":"1 55935U 23037X   26263.91670139  .00030454  00000+0  21100-2 0  9998","line2":"2 55935  70.0015 152.1839 0005442 289.1493  92.9118 15.05509341  5763","mean_motion":15.05509341,"eccentricity":0.0005442,"inclination_deg":70.0015,"raan_deg":152.1839,"arg_perigee_deg":289.1493,"mean_anomaly_deg":92.9118,"bstar":0.00211,"rev_number":576,"period_min":95.648692491241,"perigee_km":546.17238422562,"apogee_km":553.71290611142,"semimajor_km":6928.0796451685,"source":"CELESTRAK","updated_at":"2026-09-21T09:00:33.326488Z"}}}